Tracking 31027 objects as of 19-Jul-2025
HD Live streaming from Space Station
objects crossing your sky now

STARLINK-33630

Track STARLINK-33630 now!
10-day predictions
STARLINK-33630 is classified as:


NORAD ID: 63477
Int'l Code: 2025-070T
Perigee: 488.8 km
Apogee: 491.4 km
Inclination: 43.0 °
Period: 94.3 minutes
Semi major axis: 6861 km
RCS: Unknown
Launch date: April 6, 2025
Source: United States (US)
Launch site: AIR FORCE EASTERN TEST RANGE (AFETR)
Your satellite tracking list
LANDSAT 5
Track 1 satellite(s)




NASA's NSSDC Master Catalog

Two Line Element Set (TLE):
1 63477U 25070T   25199.25316729  .00024579  00000-0  89881-3 0  9996
2 63477  42.9999 140.1837 0001846 263.0843  96.9799 15.27612995 17161
Source of the keplerian elements: AFSPC